This is the latest recevied weather packets stored in our database for station/object F5OWB. If no packets are shown the sender has not sent any weather packets the latest 10 day(s).
| Time | Temp. | Humidity | Pressure | Rain* | Wind** | Luminosity | Snow |
|---|---|---|---|---|---|---|---|
| 1778155191 | 16.67° C | 64% | 1018.1 hPa | 0 mm | - | 900 W/m² | - |
| 1778155127 | 16.67° C | 63% | 1018.1 hPa | 0 mm | - | 935 W/m² | - |
| 1778155069 | 16.67° C | 60% | 1018.1 hPa | 0 mm | - | 935 W/m² | - |
| 1778155005 | 16.67° C | 60% | 1018.1 hPa | 0 mm | - | 963 W/m² | - |
| 1778154880 | 16.67° C | 62% | 1018.1 hPa | 0 mm | - | 988 W/m² | - |
| 1778154817 | 16.67° C | 63% | 1018.1 hPa | 0 mm | - | 993 W/m² | - |
| 1778154757 | 16.67° C | 64% | 1018.2 hPa | 0 mm | - | 993 W/m² | - |
| 1778154639 | 16.67° C | 66% | 1018.1 hPa | 0 mm | - | 984 W/m² | - |
| 1778154572 | 16.67° C | 66% | 1018.1 hPa | 0 mm | - | 976 W/m² | - |
| 1778154513 | 16.67° C | 63% | 1018.1 hPa | 0 mm | - | 963 W/m² | - |
| 1778154451 | 16.67° C | 63% | 1018.1 hPa | 0 mm | - | 953 W/m² | - |
| 1778154391 | 16.67° C | 65% | 1018.1 hPa | 0 mm | - | 940 W/m² | - |
| 1778154333 | 16.67° C | 64% | 1018.1 hPa | 0 mm | - | 932 W/m² | - |
| 1778154267 | 16.67° C | 65% | 1018.1 hPa | 0 mm | - | 918 W/m² | - |
| 1778154207 | 16.67° C | 66% | 1018.1 hPa | 0 mm | - | 911 W/m² | - |
| 1778154147 | 16.67° C | 65% | 1018.1 hPa | 0 mm | - | 900 W/m² | - |
| 1778154086 | 16.67° C | 63% | 1018.1 hPa | 0 mm | - | 879 W/m² | - |
| 1778154024 | 16.11° C | 63% | 1018.1 hPa | 0 mm | - | 867 W/m² | - |
| 1778153964 | 16.11° C | 64% | 1018.1 hPa | 0 mm | - | 854 W/m² | - |
| 1778153899 | 16.11° C | 64% | 1018.2 hPa | 0 mm | - | 844 W/m² | - |
| 1778153840 | 16.11° C | 66% | 1018.2 hPa | 0 mm | - | 842 W/m² | - |
| 1778153780 | 16.11° C | 65% | 1018.2 hPa | 0 mm | - | 837 W/m² | - |
| 1778153722 | 16.11° C | 66% | 1018.2 hPa | 0 mm | - | 837 W/m² | - |
| 1778153661 | 16.11° C | 68% | 1018.2 hPa | 0 mm | - | 835 W/m² | - |
| 1778153597 | 16.11° C | 68% | 1018.3 hPa | 0 mm | - | 830 W/m² | - |
* Rain latest hour (hover to see other rain measurements)
** Current wind speed in m/s (hover to see current wind gust speed)